Location: Newark
(46.7000°N, 60.6000°W)
Time: 12:32:35
(UTC+00:00)

Vanguard 1 Rocket - Pass Details

Date: 01 November 2020
Orbit: 655 x 4221 km, 34.3° (Epoch: 04 December)

Event Time Altitude Azimuth Distance (km) Brightness Sun altitude
Rises 16:51:39 0° 251° (WSW) 3,007 10.6 26.8°
Reaches altitude 10° 16:54:55 10° 225° (SW) 2,059 10.5 26.6°
Maximum altitude 16:57:18 14° 192° (SSW) 1,854 11.0 26.5°
Drops below altitude 10° 16:59:53 10° 159° (SSE) 2,264 10.3 26.4°
Sets 17:03:50 0° 135° (SE) 3,548 10.7 26.1°
